Location: Unnamed
(45.7828°N, 108.5339°W)
Time: 20:21:36
(UTC-06:00)

ISS - Pass Details

Date: 30 June 2021
Orbit: 419 x 421 km, 51.6° (Epoch: 02 August)

Event Time Altitude Azimuth Distance (km) Brightness Sun altitude
Exits shadow 03:16:45 18° 146° (SE) 1,114 -1.9 -16.0°
Maximum altitude 03:17:11 18° 136° (SE) 1,099 -1.8 -15.9°
Drops below altitude 10° 03:19:34 10° 90° (E) 1,500 -0.6 -15.7°
Sets 03:22:06 0° 71° (ENE) 2,368 0.8 -15.5°
